Wind_Speed
20 20 21 21 21 21 20 18 18 18 17 17 17 17 16 15 15 15 14 14 14 14 14 15 15 14 14 14 13 13 12 12 11 11 11 11 11 10 10 10 9 9 8 8 8 8 8 8 8
21 22 22 23 23 22 20 19 19 19 19 19 18 18 17 16 15 15 14 14 15 15 15 16 16 15 15 15 15 15 14 14 14 13 13 13 12 12 11 11 10 10 10 10 9 9 9 9 9
23 23 24 24 24 23 21 21 21 21 20 20 20 20 19 17 17 16 15 15 16 16 15 16 16 16 16 16 16 16 16 15 15 15 15 14 14 13 13 12 12 12 12 12 12 11 11 11 11
24 24 25 25 24 23 23 22 23 23 22 22 22 21 20 19 18 18 17 17 16 16 16 16 17 17 17 17 17 17 17 16 16 16 16 16 15 15 15 14 14 14 14 14 13 13 12 12 12
25 25 25 25 24 23 24 24 24 24 24 23 23 22 21 20 19 19 19 18 18 18 17 17 18 18 18 18 18 18 17 17 17 17 17 17 16 16 16 16 16 16 16 15 15 15 14 14 14
26 26 26 25 24 24 24 24 24 25 25 25 24 24 23 22 21 21 21 20 20 19 19 19 19 19 19 19 19 18 18 18 19 19 18 18 18 18 18 18 18 18 17 17 17 17 16 16 16
27 27 26 25 25 25 25 25 26 26 26 27 25 25 24 24 23 23 22 22 21 21 21 20 20 20 20 20 20 20 20 20 20 20 20 20 20 19 19 19 18 18 18 18 19 18 18 18 18
28 29 28 27 26 26 26 27 27 27 28 28 27 26 26 26 25 25 24 23 23 23 23 22 22 21 22 22 22 22 22 22 21 21 21 21 21 20 20 20 20 20 20 20 20 20 20 19 19
30 30 29 28 27 27 28 28 29 29 29 29 29 27 27 27 27 26 26 25 25 24 24 24 24 23 23 23 23 24 24 24 23 23 23 23 23 23 22 22 22 22 22 21 22 22 22 22 21
31 31 30 29 29 29 29 29 30 30 30 30 30 29 28 28 28 28 27 27 27 26 26 25 25 25 25 25 25 25 25 25 25 25 25 25 25 24 24 23 23 23 23 23 23 23 24 24 23
32 31 31 31 31 31 31 31 31 31 31 31 31 31 30 30 30 30 29 29 29 28 28 28 28 27 28 27 27 27 27 27 27 27 27 26 26 26 25 25 26 25 25 24 25 25 26 26 25
33 32 32 32 32 33 32 32 32 32 32 33 33 32 32 31 32 32 31 30 30 30 30 30 30 30 30 30 29 29 29 29 29 29 28 28 27 27 27 28 28 28 27 26 26 26 27 27 27
34 33 34 34 34 34 34 33 33 33 34 34 34 34 34 34 34 33 33 32 32 31 31 31 32 32 32 32 32 31 31 31 30 30 30 30 30 29 29 29 30 30 30 29 28 29 29 29 28
34 35 35 35 35 35 35 35 34 34 35 35 35 35 35 35 35 35 34 34 33 33 33 33 34 34 34 34 34 34 34 33 33 33 33 32 32 32 31 31 31 32 32 32 31 31 31 31 31
36 36 36 36 36 37 37 37 36 36 36 37 36 36 36 36 37 37 36 36 35 35 35 35 36 36 36 36 36 36 36 36 36 36 35 35 34 34 34 34 34 33 34 34 34 33 33 33 32
36 37 38 37 37 38 39 38 37 38 38 38 38 38 38 38 39 39 38 38 38 38 37 37 37 37 37 37 37 37 38 38 38 38 38 37 37 37 37 36 35 35 36 35 35 35 35 35 35
37 38 38 38 39 39 40 39 38 38 39 39 39 39 40 40 40 40 40 40 39 39 39 39 39 39 39 39 39 40 40 40 40 40 40 39 39 39 39 38 38 37 37 37 37 37 36 36 36
38 39 39 39 40 41 41 40 39 39 40 40 40 40 41 41 42 41 41 42 41 41 41 41 41 41 41 41 41 42 42 42 42 42 41 41 41 40 40 40 40 39 39 39 39 38 38 38 37
39 39 40 40 41 42 42 42 41 41 42 42 42 42 42 42 43 43 43 43 43 43 43 43 43 44 44 43 43 43 43 43 44 44 43 43 43 42 42 41 41 41 41 40 40 40 40 40 39
40 40 40 41 41 42 42 42 42 42 43 43 44 44 44 44 44 44 45 45 45 45 45 45 45 45 46 45 45 45 45 45 45 45 45 45 45 44 43 43 43 43 43 43 42 42 42 42 41
40 40 40 41 42 43 44 43 42 43 43 44 44 45 45 45 45 46 46 46 46 46 46 46 46 47 47 47 47 47 47 47 47 47 47 47 47 46 45 45 45 44 44 44 44 44 43 43 42
40 40 41 42 43 44 44 46 42 42 43 43 44 45 45 46 46 47 47 47 47 47 47 47 48 48 49 49 49 48 48 48 48 47 48 49 49 48 48 47 46 46 45 45 45 45 45 44 44
41 41 42 42 44 45 44 47 44 42 42 42 43 44 45 46 47 47 47 47 48 48 48 49 49 50 49 50 50 50 49 49 49 48 49 50 50 50 50 49 48 47 46 46 45 46 46 46 45
40 41 42 43 44 45 43 45 45 42 41 41 42 43 44 45 46 47 47 48 48 48 48 49 49 50 50 50 50 51 51 51 51 50 51 51 51 51 51 50 50 48 48 47 46 46 47 47 46
40 40 41 43 44 45 43 44 44 41 40 40 40 42 43 44 45 46 46 47 47 48 48 49 50 50 50 51 51 51 51 52 52 52 52 52 52 51 51 51 51 50 49 49 48 48 48 48 48
38 39 40 42 44 44 44 44 42 40 39 39 40 41 42 43 44 44 45 45 47 48 48 49 50 50 51 51 51 52 52 52 52 52 52 52 53 53 52 52 52 51 51 50 50 49 49 49 49
37 38 39 41 43 44 44 43 41 40 39 39 39 40 41 42 43 44 44 45 46 46 47 48 49 49 50 50 51 52 52 52 52 52 53 53 53 53 53 53 53 53 52 52 51 51 50 51 50
37 37 37 39 42 43 43 42 41 39 39 39 40 41 41 41 42 43 44 44 45 46 46 47 47 48 49 50 51 52 53 53 53 53 53 53 54 54 54 53 54 54 53 53 52 52 52 52 51
36 36 37 39 41 42 43 41 39 40 40 40 41 41 41 42 42 43 43 44 45 45 46 47 47 48 49 50 51 52 53 53 54 54 53 54 54 54 54 54 54 54 54 54 54 53 53 53 53
36 36 36 38 40 42 43 41 39 40 39 40 40 41 41 42 42 42 43 44 45 45 46 47 48 48 49 49 50 52 53 53 53 53 54 55 55 54 54 54 55 55 55 54 54 54 55 54 54
Wind_Direction
252 251 249 249 249 250 250 250 250 251 251 251 252 254 256 256 255 253 253 253 253 254 256 256 257 257 259 261 261 259 259 259 260 262 265 268 270 273 276 278 281 279 277 278 270 264 264 267 267
252 251 250 250 250 251 251 250 250 251 251 251 252 253 255 255 254 254 254 255 255 255 256 258 258 259 258 259 260 261 261 260 260 262 264 266 267 269 271 273 275 275 271 272 269 264 263 263 265
253 252 251 251 252 252 252 251 250 250 251 252 253 253 254 254 254 255 256 257 256 256 257 259 260 260 260 259 260 261 260 259 259 261 261 263 265 266 268 269 271 271 269 267 267 263 262 261 262
253 252 252 252 253 253 253 251 249 248 249 252 253 253 254 254 255 256 256 257 258 257 258 259 261 262 261 261 260 260 260 259 260 260 261 261 262 265 267 268 269 269 268 265 265 263 261 261 261
252 251 252 253 253 253 253 252 251 250 249 250 252 252 254 254 255 256 256 257 257 258 259 261 263 263 263 263 262 261 260 260 261 261 261 261 262 263 265 266 266 266 266 263 263 263 262 261 261
252 252 253 254 254 254 254 253 252 251 250 251 252 252 253 254 254 256 257 257 257 258 259 262 263 264 264 263 262 262 261 261 261 261 261 261 262 263 263 264 264 264 264 262 261 263 261 261 260
252 253 253 253 253 252 252 252 251 251 251 252 253 252 252 252 253 255 256 257 257 257 258 261 263 264 264 263 262 263 263 262 262 261 261 261 262 262 262 262 262 263 263 262 260 261 260 260 260
253 253 253 253 253 253 253 252 252 252 252 252 253 252 251 252 253 254 255 256 257 258 258 259 261 263 263 264 263 262 263 263 262 261 261 262 262 262 261 261 262 263 263 261 259 258 257 259 261
253 253 254 254 254 253 253 253 252 252 252 252 252 251 251 251 253 254 254 255 256 257 259 259 260 261 263 264 263 262 262 262 262 262 262 262 261 261 261 262 262 262 262 261 258 256 258 259 262
255 255 255 254 253 252 252 252 252 252 251 252 252 252 251 251 252 253 253 255 255 256 259 260 260 260 262 263 263 262 262 262 262 262 262 262 261 260 261 262 263 262 261 262 259 258 258 260 261
256 256 255 253 252 251 251 251 252 252 251 252 252 251 251 251 252 253 254 254 255 256 258 259 260 261 261 262 262 263 262 262 263 263 262 261 261 261 261 262 262 261 261 262 261 260 259 259 261
257 257 255 253 251 251 250 251 251 252 252 251 251 251 251 252 252 254 255 255 256 257 258 259 260 261 261 261 262 263 263 263 263 263 263 262 261 261 261 261 261 260 259 261 262 260 259 259 260
257 256 255 253 252 251 251 251 252 252 252 252 251 251 252 252 253 254 254 255 256 257 258 259 261 262 262 261 262 262 263 263 263 263 263 263 262 262 262 261 260 259 259 261 263 263 261 260 260
256 256 255 254 253 253 252 252 253 252 252 252 251 252 252 252 253 254 254 255 256 257 258 259 260 261 262 262 262 262 262 262 263 263 263 263 263 262 262 262 261 261 260 261 262 263 262 261 260
257 256 255 254 254 254 254 253 253 253 253 252 252 252 252 252 253 254 255 255 257 258 259 259 260 261 262 262 262 262 261 262 263 263 262 263 263 263 263 263 262 261 261 260 262 263 264 262 261
258 257 256 255 255 254 254 254 254 254 254 253 252 252 252 253 254 254 255 256 258 259 260 260 260 261 261 262 262 262 261 262 262 263 262 262 263 263 263 262 262 261 261 260 261 263 264 264 263
259 259 257 256 256 255 254 254 253 253 254 254 254 253 253 254 254 255 257 258 258 259 260 260 260 261 261 261 262 262 262 262 262 262 262 262 262 263 263 263 262 261 261 260 260 262 264 264 263
261 260 259 257 257 256 255 254 253 254 254 255 255 255 255 256 256 257 258 259 259 259 260 261 261 261 261 261 261 262 262 262 262 262 262 262 262 262 262 262 262 261 261 261 261 261 263 263 263
261 260 259 258 257 257 256 255 253 253 254 255 255 256 256 257 257 258 258 259 259 259 260 261 261 262 262 261 261 262 262 262 262 262 262 262 262 261 261 261 261 261 261 262 262 262 262 262 263
263 262 261 260 259 258 257 256 255 255 255 255 255 256 257 258 258 258 258 259 259 260 260 261 262 262 262 262 262 262 262 262 262 262 262 262 261 262 261 261 261 262 262 262 263 262 262 261 261
263 263 263 262 261 260 259 256 256 256 256 256 257 257 257 258 258 258 259 259 260 261 261 261 262 262 262 263 263 262 262 262 263 263 262 262 261 261 260 260 260 261 263 263 262 262 261 260 260
264 264 264 263 262 261 260 260 257 258 257 257 258 258 258 258 259 259 260 260 260 260 261 261 262 262 262 262 262 262 262 262 263 263 262 261 261 260 260 260 261 261 263 263 263 262 261 260 260
264 263 264 264 264 263 262 262 259 259 259 259 259 259 259 259 260 260 260 260 261 261 261 261 262 262 262 261 261 261 261 261 263 264 263 261 260 259 260 260 260 261 262 262 262 262 261 260 260
264 264 263 263 264 263 263 264 263 262 262 262 261 260 261 261 261 261 260 261 261 261 261 261 261 261 261 261 261 261 261 262 263 264 263 261 259 259 259 259 260 260 261 262 262 261 261 260 259
264 265 265 264 264 265 265 265 266 266 264 263 262 262 262 262 262 261 261 261 262 262 261 261 261 262 262 261 261 261 261 262 263 263 262 260 258 258 258 259 260 260 261 261 261 260 259 258 259
266 265 266 267 267 267 266 266 267 267 266 264 263 263 263 263 262 262 262 262 263 263 262 263 263 263 262 262 261 261 262 262 262 263 261 259 258 257 258 259 259 260 260 260 261 260 259 258 258
266 266 266 267 267 267 266 266 265 266 266 264 264 263 264 264 264 264 264 264 264 264 264 263 263 263 263 262 262 262 261 262 262 262 261 259 258 257 258 259 260 260 259 260 260 260 259 258 257
267 267 267 266 267 268 268 267 267 266 265 265 264 264 264 264 264 265 265 265 264 264 264 264 264 263 264 263 263 262 261 261 261 262 261 259 258 258 258 259 259 258 259 259 259 258 258 257 256
267 267 267 266 266 268 269 269 268 269 269 267 267 266 265 265 265 265 265 265 265 265 265 265 265 265 265 265 264 262 261 262 262 262 261 260 259 258 258 259 258 258 258 258 258 257 257 257 256
267 267 267 267 267 267 269 271 271 271 271 269 268 267 267 268 267 267 267 266 266 266 266 266 267 267 267 266 265 264 263 263 262 262 262 260 259 258 258 259 259 258 258 257 257 257 257 257 256
Height
5803 5804 5805 5806 5807 5808 5810 5812 5813 5814 5815 5816 5817 5818 5819 5821 5823 5826 5825 5824 5825 5826 5827 5827 5828 5829 5829 5830 5831 5831 5832 5832 5833 5834 5835 5836 5836 5837 5838 5838 5839 5840 5840 5841 5841 5842 5842 5843 5844
5799 5800 5802 5802 5803 5804 5807 5809 5809 5810 5812 5813 5814 5815 5816 5817 5818 5820 5820 5821 5822 5823 5824 5824 5825 5826 5826 5827 5828 5828 5829 5830 5831 5831 5832 5833 5834 5835 5836 5836 5837 5838 5838 5839 5839 5840 5841 5841 5842
5795 5796 5797 5798 5799 5801 5804 5805 5806 5807 5808 5809 5811 5812 5813 5814 5815 5816 5817 5818 5819 5820 5820 5821 5821 5822 5823 5824 5825 5825 5826 5826 5827 5828 5829 5830 5831 5832 5833 5834 5835 5835 5836 5837 5837 5838 5839 5840 5840
5790 5791 5792 5794 5795 5797 5799 5801 5801 5802 5804 5805 5807 5808 5809 5811 5811 5812 5813 5814 5815 5816 5817 5817 5818 5819 5820 5820 5821 5821 5822 5823 5824 5824 5826 5827 5828 5829 5830 5831 5832 5832 5833 5834 5835 5835 5836 5837 5838
5785 5786 5787 5789 5791 5793 5794 5795 5796 5797 5799 5801 5802 5804 5805 5806 5807 5808 5809 5810 5811 5812 5813 5814 5814 5815 5816 5816 5817 5817 5818 5819 5820 5821 5822 5823 5824 5825 5826 5827 5828 5829 5830 5831 5831 5832 5833 5834 5835
5780 5781 5783 5784 5786 5788 5789 5790 5791 5793 5794 5796 5798 5799 5801 5802 5803 5804 5805 5806 5807 5808 5809 5810 5810 5811 5811 5812 5813 5814 5814 5815 5816 5817 5818 5819 5820 5821 5822 5823 5824 5825 5826 5827 5828 5829 5830 5831 5832
5775 5776 5778 5780 5781 5783 5784 5785 5786 5788 5789 5791 5792 5794 5796 5797 5798 5800 5801 5802 5803 5804 5804 5805 5806 5807 5807 5808 5809 5809 5810 5811 5811 5812 5813 5815 5816 5817 5818 5819 5820 5821 5821 5822 5824 5825 5826 5827 5828
5769 5771 5772 5774 5776 5778 5779 5780 5781 5782 5784 5785 5787 5789 5791 5792 5793 5794 5796 5797 5798 5799 5800 5800 5801 5802 5803 5803 5804 5805 5806 5806 5807 5808 5809 5810 5811 5812 5813 5814 5815 5816 5817 5818 5819 5820 5821 5822 5823
5763 5765 5767 5769 5771 5772 5773 5774 5775 5776 5778 5779 5781 5783 5785 5786 5787 5789 5790 5791 5792 5793 5794 5795 5796 5797 5797 5798 5799 5800 5801 5801 5802 5803 5804 5805 5806 5807 5808 5809 5810 5811 5812 5813 5813 5815 5816 5818 5819
5756 5758 5762 5763 5764 5766 5766 5767 5769 5770 5772 5773 5775 5777 5779 5780 5782 5783 5784 5786 5787 5788 5789 5789 5790 5791 5792 5793 5793 5794 5795 5796 5797 5798 5799 5800 5801 5802 5803 5804 5805 5806 5807 5807 5808 5810 5811 5812 5814
5750 5752 5754 5755 5757 5758 5759 5760 5762 5763 5766 5767 5769 5771 5773 5774 5775 5777 5778 5779 5781 5782 5783 5783 5784 5785 5786 5787 5787 5788 5789 5790 5791 5792 5793 5794 5795 5796 5797 5798 5799 5800 5801 5802 5803 5804 5806 5807 5808
5743 5745 5746 5748 5749 5750 5752 5753 5755 5757 5759 5761 5762 5764 5766 5767 5769 5770 5771 5773 5774 5775 5776 5777 5778 5779 5779 5780 5781 5782 5782 5783 5784 5785 5786 5787 5788 5789 5791 5792 5793 5794 5795 5796 5797 5798 5799 5801 5802
5735 5737 5738 5740 5741 5742 5744 5746 5747 5749 5751 5753 5755 5756 5758 5760 5761 5763 5764 5766 5767 5768 5769 5770 5771 5772 5772 5773 5774 5775 5776 5776 5777 5779 5780 5781 5782 5783 5784 5785 5786 5787 5789 5790 5791 5791 5793 5794 5795
5727 5728 5730 5731 5733 5734 5736 5738 5740 5742 5743 5745 5747 5749 5750 5752 5754 5755 5756 5758 5759 5760 5761 5762 5763 5764 5765 5765 5766 5767 5768 5769 5770 5771 5772 5773 5774 5775 5776 5778 5779 5780 5781 5782 5783 5784 5785 5787 5788
5718 5720 5721 5723 5724 5726 5728 5730 5732 5733 5735 5737 5739 5740 5742 5744 5745 5747 5748 5749 5751 5752 5753 5754 5755 5756 5757 5757 5758 5759 5760 5761 5762 5763 5764 5765 5766 5767 5768 5770 5771 5772 5773 5774 5776 5776 5777 5779 5780
5709 5710 5712 5715 5715 5717 5720 5722 5723 5724 5726 5728 5730 5731 5733 5735 5736 5738 5739 5740 5742 5743 5744 5745 5746 5747 5748 5748 5749 5750 5751 5752 5753 5754 5755 5756 5757 5759 5760 5761 5762 5763 5764 5766 5767 5768 5769 5770 5772
5700 5701 5703 5705 5706 5707 5709 5712 5714 5714 5716 5718 5720 5722 5724 5726 5727 5728 5729 5731 5732 5733 5734 5735 5736 5737 5738 5739 5740 5741 5741 5743 5744 5745 5746 5747 5748 5749 5750 5752 5753 5754 5755 5756 5758 5759 5760 5761 5762
5691 5692 5693 5695 5695 5697 5699 5702 5704 5704 5706 5708 5710 5712 5714 5716 5717 5718 5719 5721 5722 5724 5724 5725 5726 5727 5728 5729 5730 5731 5732 5732 5734 5735 5736 5737 5738 5739 5740 5741 5743 5744 5745 5746 5748 5749 5750 5751 5752
5680 5681 5683 5684 5685 5686 5688 5691 5693 5694 5696 5698 5699 5701 5703 5705 5706 5707 5709 5710 5711 5713 5714 5714 5715 5716 5717 5718 5720 5720 5721 5722 5723 5724 5725 5726 5727 5728 5730 5731 5732 5733 5735 5736 5737 5739 5740 5741 5742
5670 5671 5672 5673 5673 5675 5676 5679 5682 5683 5685 5686 5688 5690 5692 5693 5694 5696 5697 5698 5700 5701 5702 5703 5704 5705 5706 5707 5708 5709 5710 5711 5712 5712 5714 5715 5716 5717 5718 5720 5721 5723 5724 5725 5726 5728 5729 5730 5731
5659 5661 5662 5662 5662 5663 5665 5668 5670 5672 5673 5674 5676 5678 5679 5681 5682 5683 5685 5686 5688 5689 5690 5691 5692 5693 5694 5695 5696 5697 5698 5699 5700 5701 5702 5702 5703 5705 5706 5708 5710 5711 5712 5714 5715 5716 5718 5719 5721
5649 5650 5650 5650 5650 5651 5653 5653 5659 5660 5661 5662 5664 5666 5667 5669 5670 5671 5672 5674 5675 5676 5677 5678 5679 5680 5681 5682 5683 5684 5686 5687 5688 5688 5689 5690 5691 5692 5694 5696 5697 5699 5700 5702 5703 5704 5706 5707 5709
5638 5638 5638 5638 5638 5639 5641 5641 5646 5647 5649 5651 5652 5653 5654 5656 5657 5658 5660 5661 5662 5663 5664 5665 5666 5667 5668 5669 5670 5671 5672 5673 5674 5675 5676 5677 5678 5679 5681 5683 5685 5686 5688 5689 5691 5692 5693 5695 5697
5626 5626 5626 5626 5626 5628 5631 5630 5633 5636 5638 5639 5640 5641 5642 5643 5645 5646 5647 5648 5649 5650 5651 5651 5653 5654 5654 5655 5656 5657 5659 5659 5660 5661 5662 5663 5664 5666 5667 5670 5672 5673 5675 5677 5678 5679 5681 5682 5684
5615 5616 5615 5614 5614 5617 5619 5618 5622 5625 5627 5628 5629 5629 5630 5631 5632 5632 5633 5635 5635 5636 5637 5638 5639 5640 5640 5641 5642 5643 5644 5645 5646 5647 5648 5649 5651 5652 5654 5656 5658 5660 5661 5663 5664 5666 5668 5669 5672
5605 5605 5606 5605 5605 5606 5607 5608 5613 5614 5615 5616 5617 5618 5618 5619 5619 5620 5621 5622 5622 5623 5623 5624 5624 5626 5626 5627 5628 5629 5629 5630 5631 5632 5633 5634 5636 5638 5640 5642 5644 5645 5647 5649 5651 5652 5654 5656 5658
5594 5595 5596 5595 5594 5594 5595 5598 5601 5603 5603 5604 5605 5606 5606 5607 5607 5608 5609 5609 5609 5609 5610 5610 5610 5611 5612 5612 5613 5614 5614 5615 5616 5617 5618 5620 5621 5624 5626 5627 5629 5631 5633 5635 5636 5638 5640 5642 5644
5585 5585 5585 5584 5583 5583 5585 5588 5591 5592 5592 5593 5594 5594 5594 5595 5595 5596 5596 5596 5596 5596 5596 5596 5596 5597 5597 5597 5598 5598 5599 5600 5601 5602 5603 5605 5607 5609 5610 5612 5614 5616 5618 5620 5622 5624 5626 5628 5631
5576 5576 5575 5574 5574 5574 5574 5580 5581 5581 5581 5581 5582 5582 5582 5583 5583 5583 5583 5583 5583 5583 5583 5583 5583 5583 5583 5583 5583 5584 5584 5586 5586 5587 5588 5590 5591 5593 5595 5597 5599 5601 5603 5605 5606 5609 5611 5613 5616
5565 5566 5566 5565 5565 5564 5564 5571 5571 5570 5570 5569 5570 5570 5571 5571 5571 5571 5571 5571 5570 5570 5570 5570 5570 5570 5569 5569 5569 5569 5570 5570 5571 5572 5573 5574 5576 5578 5580 5581 5583 5585 5587 5589 5591 5593 5596 5598 5601